[[{"header":{"parameterUnit":"m.s-1","parameterCategory":1,"la1":30.2991,"la2":30.254,"lo1":-89.0895,"lo2":-89.0444,"dy":0.0017,"dx":0.0017,"nx":28,"ny":28,"refTime":"2023-10-04T21:00:00:Z","depth":0,"parameterNumber":2,"parameterNumberName":"U-component_of_WINDS"},"data":[0,0,0,0,0,0,0,0,0,0,0,0,0,0,0,0,0,0,0,0,0,0,0,0,0,0,0,0,0,0,0,0,0,0,0,0,0,0,0,0,0,0,0,0,0,0,0,0,0,0,0,0,0,0,0,0,0,0,2.9328,2.9331,0,2.9607,2.961,2.9613,2.9702,2.97,2.9699,2.9698,2.9985,2.9994,3.0002,0,0,0,0,0,0,0,0,0,0,0,0,0,2.8877,2.8885,2.9328,2.9332,2.9335,2.9606,2.961,2.9614,2.9702,2.97,2.9699,2.9697,2.9982,2.9993,3.0003,0,0,0,0,0,0,0,0,0,0,0,0,0,2.9106,2.8888,2.9328,2.9412,2.9422,2.9605,2.961,2.9615,2.9702,2.97,2.9698,2.9697,2.9979,2.9992,3.0005,3.0125,0,0,3.0045,3.0051,0,0,0,0,0,0,0,0,2.9093,2.9122,2.9396,2.9406,2.9418,2.9617,2.9556,2.9786,2.9703,2.9596,2.9698,2.9696,2.9864,2.9887,2.9943,3.0138,3.0151,3.0046,3.0054,3.006,3.0064,0,0,0,0,0,0,0,2.9077,2.9111,2.9438,2.94,2.9413,2.9437,2.9467,2.96,2.9738,2.9605,2.9612,2.9644,2.987,2.993,2.9951,3.0155,3.0046,3.0058,3.0066,3.0071,3.0466,3.0469,0,0,0,0,0,0,2.9046,2.9097,2.943,2.9447,2.9247,2.9447,2.9481,2.9555,2.9736,2.9762,2.9645,2.9647,2.9909,2.9935,2.9961,3.0117,3.006,3.0072,3.008,3.0464,3.0467,3.0469,0,0,0,0,0,0,2.9036,2.9075,2.9418,2.9274,2.932,2.9456,2.954,2.9562,2.9622,2.9767,2.9792,2.9681,2.9908,2.9943,3.0084,3.0128,3.0078,3.009,3.0461,3.0465,3.0468,3.0426,0,0,0,0,0,0,2.9023,2.9071,2.9117,2.9274,2.9327,2.9535,2.9542,2.9569,2.9645,2.965,2.9807,2.9832,2.9909,3.0064,3.0097,3.0145,3.0101,3.0457,3.0462,3.0467,3.0424,3.0428,3.0431,0,0,0,0,0,2.9007,2.9094,2.9119,2.9158,2.9387,2.9537,2.9568,2.9655,2.9648,2.9696,2.9789,2.9827,3.0117,3.0078,3.0116,3.0168,3.0455,3.0461,3.0466,3.0422,3.0427,3.0431,0,0,0,0,0,0,2.8938,2.9116,2.9146,2.9286,2.9396,2.9552,2.9616,2.9656,2.9771,2.9771,2.9875,2.991,3.0044,3.0121,3.0073,3.0296,3.0288,3.0302,3.0241,3.0247,3.025,3.023,3.0112,0,0,0,0,0,2.8939,2.9045,2.9195,2.9305,2.9359,2.9477,2.9546,2.9604,2.9722,2.9769,2.9873,2.9987,3.0105,3.018,3.0295,3.0435,3.0472,3.049,3.0493,3.0496,3.0507,3.0589,3.06,3.0488,3.0488,3.0488,0,0,2.8943,2.9053,2.9114,2.9294,2.9386,2.9496,2.9516,2.963,2.9713,2.9787,2.9928,3.0007,3.0142,3.0284,3.0351,3.0351,3.0546,3.0503,3.0503,3.0514,3.0596,3.0606,3.0616,3.0492,3.0491,3.0491,0,0,2.9006,2.9099,2.9202,2.9294,2.9433,2.9512,2.9536,2.9687,2.9743,2.9885,2.9944,3.0045,3.0244,3.0338,3.0412,3.0513,3.0553,3.0548,3.0566,3.0645,3.0654,3.0663,3.0701,3.0713,3.0558,3.0558,3.0558,0,2.8993,2.9159,2.9249,2.9362,2.944,2.9512,2.9619,2.9704,2.9873,2.9927,2.9924,3.0178,3.0273,3.0439,3.0464,3.0521,3.0554,3.0531,3.0645,3.0655,3.0664,3.0702,3.0715,3.0557,3.0557,3.0557,3.0557,0,2.9138,2.9252,2.9319,2.9481,2.9567,2.9676,2.9784,2.9861,2.9911,2.9991,3.0137,3.0254,3.0396,3.0439,3.049,3.0614,3.061,3.0625,3.0619,3.0672,3.0709,3.0724,3.0555,3.0555,3.0556,3.0556,0,0,2.9165,2.9377,2.94,2.9476,2.9636,2.9727,2.9839,2.9978,3.0043,3.0158,3.0256,3.0424,3.044,3.0524,3.0586,3.0655,3.0731,3.0663,3.0667,3.0673,3.0877,3.0866,3.0881,3.0757,3.076,3.0763,3.0867,0,2.925,2.9453,2.9539,2.9704,2.9812,2.9883,2.9982,3.0091,3.0169,3.0273,3.036,3.0478,3.0488,3.054,3.0611,3.0706,3.0773,3.0699,3.0852,3.0856,3.0817,3.09,3.0888,3.0981,3.0882,3.0884,3.0886,0,2.9376,2.9492,2.9667,2.9817,2.9865,2.9952,3.0088,3.0186,3.0312,3.0364,3.0459,3.0518,3.0641,3.0626,3.0798,3.0746,3.0814,3.0869,3.0875,3.0894,3.0875,3.0923,3.1012,3.1026,3.0909,3.0908,3.0906,0,2.9381,2.9581,2.9713,2.9775,2.9951,3.0011,3.0088,3.0212,3.0291,3.041,3.0463,3.0593,3.0666,3.0767,3.086,3.084,3.1025,3.1017,3.1073,3.1071,3.1109,3.1106,3.1212,3.115,3.1149,3.1149,3.1149,0,2.9467,2.9572,2.9718,2.9799,2.9919,3.0018,3.0135,3.0216,3.0327,3.0427,3.0496,3.0588,3.0705,3.0813,3.0886,3.1019,3.1051,3.1098,3.1116,3.1093,3.1087,3.1139,3.1136,3.1153,3.1152,3.1151,3.1151,0,2.9493,2.9594,2.9743,2.9898,2.994,3.0022,3.0156,3.0239,3.032,3.0445,3.048,3.0608,3.0739,3.0842,3.1012,3.1062,3.1202,3.1222,3.1159,3.1169,3.122,3.1215,3.1365,3.1391,3.1309,3.1309,3.131,0,2.9543,2.9625,2.979,2.9862,2.9937,3.0051,3.0133,3.0233,3.0315,3.0467,3.0531,3.0666,3.078,3.0986,3.1095,3.1226,3.1251,3.1294,3.1271,3.1245,3.1254,3.1248,3.1258,3.1297,3.1298,3.1298,3.1298,0,2.962,2.9667,2.9781,2.9913,3.0008,3.0117,3.0227,3.0282,3.0403,3.0492,3.0626,3.0714,3.0889,3.1023,3.1166,3.1246,3.1294,3.1305,3.1325,3.1302,3.1263,3.1287,3.1169,3.1301,3.1301,3.1301,3.13,3.13,2.9662,2.9739,2.9868,2.9993,3.0087,3.0189,3.0275,3.0368,3.0481,3.0631,3.0683,3.0822,3.0949,3.1146,3.1227,3.1338,3.1342,3.137,3.1378,3.1384,3.1382,3.1244,3.1365,3.1365,3.1365,3.1365,3.1365,0,2.9745,2.9831,2.9946,3.0099,3.0198,3.0233,3.0358,3.0438,3.0559,3.0674,3.0785,3.094,3.1071,3.1191,3.1328,3.1394,3.142,3.1427,3.1424,3.1443,3.1371,3.134,3.1405,3.1405,3.1405,3.1405,3.1404,3.1404,2.98,2.9934,2.9996,3.0179,3.0265,3.0401,3.047,3.0566,3.0658,3.0828,3.0937,3.1014,3.1132,3.1279,3.1401,3.1433,3.1482,3.1484,3.1521,3.1452,3.1447,3.1442,3.1414,3.1493,3.1493,3.1585,3.1585,3.1586]},{"header":{"parameterUnit":"m.s-1","parameterCategory":1,"la1":30.2991,"la2":30.254,"lo1":-89.0895,"lo2":-89.0444,"dy":0.0017,"dx":0.0017,"nx":28,"ny":28,"refTime":"2023-10-04T21:00:00:Z","depth":0,"parameterNumber":3,"parameterNumberName":"V-component_of_WINDS"},"data":[0,0,0,0,0,0,0,0,0,0,0,0,0,0,0,0,0,0,0,0,0,0,0,0,0,0,0,0,0,0,0,0,0,0,0,0,0,0,0,0,0,0,0,0,0,0,0,0,0,0,0,0,0,0,0,0,0,0,-1.0966,-1.096,0,-1.0417,-1.041,-1.0404,-1.0201,-1.0203,-1.0205,-1.0207,-0.9622,-0.9605,-0.9588,0,0,0,0,0,0,0,0,0,0,0,0,0,-1.1819,-1.1805,-1.0966,-1.0959,-1.0953,-1.0418,-1.041,-1.0402,-1.0201,-1.0203,-1.0205,-1.0207,-0.9627,-0.9607,-0.9586,0,0,0,0,0,0,0,0,0,0,0,0,0,-1.1377,-1.18,-1.0967,-1.0788,-1.0766,-1.0419,-1.041,-1.04,-1.02,-1.0203,-1.0206,-1.0208,-0.9634,-0.9609,-0.9583,-0.9367,0,0,-0.9504,-0.9493,0,0,0,0,0,0,0,0,-1.1402,-1.1346,-1.0821,-1.08,-1.0775,-1.0381,-1.0496,-1.0053,-1.02,-1.0415,-1.0207,-1.021,-0.987,-0.9825,-0.9715,-0.934,-0.9315,-0.9502,-0.9486,-0.9475,-0.9468,0,0,0,0,0,0,0,-1.1433,-1.1368,-1.0748,-1.0814,-1.0785,-1.0728,-1.0668,-1.0411,-1.0133,-1.0396,-1.038,-1.0319,-0.9858,-0.9741,-0.97,-0.9306,-0.9502,-0.9479,-0.9463,-0.9453,-0.8722,-0.8719,0,0,0,0,0,0,-1.1497,-1.1395,-1.0765,-1.0731,-1.1103,-1.071,-1.0643,-1.0504,-1.0135,-1.0082,-1.0317,-1.0312,-0.9784,-0.9731,-0.9679,-0.94,-0.9475,-0.9451,-0.9436,-0.8726,-0.8721,-0.8717,0,0,0,0,0,0,-1.1516,-1.1443,-1.0787,-1.1059,-1.0971,-1.0693,-1.0538,-1.0492,-1.0374,-1.0076,-1.0023,-1.025,-0.9784,-0.9715,-0.9447,-0.9377,-0.9439,-0.9415,-0.8731,-0.8725,-0.8719,-0.8842,0,0,0,0,0,0,-1.1541,-1.1451,-1.1371,-1.1059,-1.0958,-1.0572,-1.0533,-1.0479,-1.0333,-1.032,-0.9999,-0.9948,-0.9781,-0.9487,-0.9422,-0.9342,-0.9395,-0.8736,-0.8728,-0.8721,-0.8843,-0.8841,-0.884,0,0,0,0,0,-1.1573,-1.1423,-1.1368,-1.1293,-1.0853,-1.0569,-1.051,-1.0327,-1.0328,-1.0242,-1.005,-0.9958,-0.9396,-0.9462,-0.9386,-0.9298,-0.8739,-0.873,-0.8722,-0.8844,-0.8842,-0.884,0,0,0,0,0,0,-1.1726,-1.1379,-1.1314,-1.106,-1.0847,-1.0535,-1.0421,-1.0331,-1.0106,-1.0103,-0.9879,-0.9808,-0.9557,-0.9399,-0.9479,-0.9067,-0.9061,-0.9037,-0.918,-0.9175,-0.9174,-0.9215,-0.9374,0,0,0,0,0,-1.1732,-1.1537,-1.1241,-1.1045,-1.0942,-1.0702,-1.057,-1.0449,-1.0215,-1.0121,-0.9909,-0.968,-0.9451,-0.9304,-0.9077,-0.882,-0.8744,-0.8722,-0.872,-0.872,-0.8701,-0.855,-0.8535,-0.8689,-0.8689,-0.8689,0,0,-1.1738,-1.1525,-1.1414,-1.1071,-1.0891,-1.0687,-1.0626,-1.0413,-1.0257,-1.0085,-0.9822,-0.9659,-0.9387,-0.9124,-0.8997,-0.8985,-0.8642,-0.8709,-0.8712,-0.8691,-0.8539,-0.8525,-0.8513,-0.8683,-0.8684,-0.8685,0,0,-1.1647,-1.1469,-1.1286,-1.1108,-1.0839,-1.068,-1.0637,-1.0338,-1.0226,-0.9959,-0.9826,-0.9634,-0.9246,-0.9057,-0.8911,-0.8751,-0.8655,-0.8682,-0.8672,-0.8527,-0.8515,-0.8503,-0.8443,-0.8424,-0.8664,-0.8664,-0.8665,0,-1.1688,-1.1383,-1.1201,-1.0996,-1.0847,-1.0691,-1.05,-1.0333,-1.0001,-0.9899,-0.9893,-0.9402,-0.9208,-0.8897,-0.8859,-0.8747,-0.8685,-0.8716,-0.8534,-0.8519,-0.8505,-0.8445,-0.8423,-0.8669,-0.8669,-0.8668,-0.8668,0,-1.1445,-1.1235,-1.1118,-1.0811,-1.0648,-1.0451,-1.0232,-1.0088,-0.9981,-0.9821,-0.9548,-0.9311,-0.9033,-0.8951,-0.884,-0.8622,-0.8624,-0.8579,-0.8567,-0.8499,-0.8438,-0.8414,-0.8676,-0.8675,-0.8673,-0.8672,0,0,-1.1432,-1.1029,-1.0989,-1.0846,-1.0539,-1.0369,-1.0163,-0.9899,-0.9778,-0.9554,-0.9371,-0.9048,-0.9005,-0.8838,-0.8705,-0.858,-0.8464,-0.8548,-0.8538,-0.8538,-0.8205,-0.8239,-0.8216,-0.8401,-0.8396,-0.8392,-0.8227,0,-1.1298,-1.0932,-1.0762,-1.0467,-1.0268,-1.0117,-0.9937,-0.9725,-0.957,-0.9373,-0.9197,-0.8971,-0.8933,-0.8831,-0.87,-0.8507,-0.8393,-0.8516,-0.8222,-0.8214,-0.8293,-0.8184,-0.8219,-0.8075,-0.8202,-0.8198,-0.8195,0,-1.1093,-1.0878,-1.0567,-1.0283,-1.0192,-1.0035,-0.9777,-0.9594,-0.9348,-0.9243,-0.9061,-0.8933,-0.8704,-0.8712,-0.8389,-0.8477,-0.8346,-0.8232,-0.8222,-0.8184,-0.8199,-0.8141,-0.8024,-0.8002,-0.8156,-0.8159,-0.8162,0,-1.1113,-1.0743,-1.0509,-1.0392,-1.0055,-0.9948,-0.9801,-0.9559,-0.9411,-0.9183,-0.9084,-0.8831,-0.8691,-0.8495,-0.83,-0.8325,-0.7995,-0.7987,-0.7896,-0.7901,-0.783,-0.7836,-0.7689,-0.7752,-0.7753,-0.7753,-0.7754,0,-1.0979,-1.0794,-1.0514,-1.0369,-1.0155,-0.9958,-0.9749,-0.959,-0.9376,-0.9193,-0.9044,-0.8874,-0.8629,-0.8425,-0.8271,-0.8025,-0.7963,-0.7867,-0.7828,-0.7879,-0.7891,-0.7787,-0.7791,-0.7747,-0.7748,-0.775,-0.7751,0,-1.0964,-1.077,-1.0503,-1.0209,-1.013,-0.9985,-0.9729,-0.9579,-0.9418,-0.9188,-0.9122,-0.8866,-0.8619,-0.8407,-0.8079,-0.7975,-0.772,-0.7674,-0.7805,-0.7784,-0.7703,-0.7713,-0.748,-0.7438,-0.7536,-0.7535,-0.7535,0,-1.0891,-1.0745,-1.0437,-1.0308,-1.0166,-0.9958,-0.9808,-0.9607,-0.9455,-0.9166,-0.9049,-0.8794,-0.8578,-0.8189,-0.7968,-0.7716,-0.766,-0.7597,-0.7621,-0.7676,-0.7655,-0.7665,-0.7647,-0.7595,-0.7595,-0.7595,-0.7595,0,-1.078,-1.0692,-1.0485,-1.0244,-1.0071,-0.987,-0.9663,-0.9564,-0.9323,-0.9159,-0.8909,-0.8743,-0.8412,-0.8157,-0.7881,-0.7721,-0.7615,-0.759,-0.7554,-0.7603,-0.7685,-0.7636,-0.78,-0.7595,-0.7595,-0.7595,-0.7595,-0.7595,-1.073,-1.0594,-1.0357,-1.013,-0.9956,-0.9767,-0.9612,-0.9434,-0.9225,-0.8945,-0.8837,-0.8581,-0.8334,-0.7955,-0.7795,-0.7586,-0.7569,-0.7519,-0.7506,-0.7496,-0.7503,-0.7723,-0.7535,-0.7534,-0.7534,-0.7534,-0.7534,0,-1.0609,-1.0451,-1.0245,-0.9965,-0.9786,-0.9712,-0.9479,-0.9332,-0.9111,-0.8894,-0.8687,-0.8398,-0.815,-0.7913,-0.7652,-0.753,-0.7474,-0.7467,-0.7472,-0.7436,-0.7533,-0.7589,-0.7517,-0.7517,-0.7517,-0.7517,-0.7517,-0.7517,-1.0526,-1.0291,-1.0174,-0.9849,-0.9688,-0.9442,-0.9315,-0.9138,-0.8964,-0.8651,-0.8448,-0.8298,-0.8069,-0.7791,-0.7558,-0.7494,-0.7402,-0.7408,-0.7331,-0.7425,-0.7429,-0.7434,-0.7484,-0.7391,-0.7391,-0.7249,-0.7248,-0.7247]}]]